Location: Branson Observatory
(36.6451°N, 93.2213°W)
Time: 16:34:57
(UTC-05:00)

OTV 5 (USA 277) - Visible Passes

Search period start: 24 March 2019 00:00
Search period end: 03 April 2019 00:00
Orbit: 315 x 320 km, 54.5° (Epoch: 14 March)

Date Brightness Start Highest point End Pass type
(mag) Time Alt. Az. Time Alt. Az. Time Alt. Az.
30 Mar ? 05:56:44 10° S 05:58:54 22° SE 06:01:05 10° ENE visible
31 Mar ? 06:11:12 13° SW 06:13:29 80° SE 06:16:12 10° NE visible
01 Apr ? 04:54:56 12° ESE 04:54:56 12° ESE 04:55:26 10° E visible
01 Apr ? 06:25:51 10° WSW 06:28:13 29° NW 06:30:40 10° NNE visible
02 Apr ? 05:09:27 30° E 05:09:27 30° E 05:11:12 10° ENE visible
